JAL2331 RJOO-RJNO

Flight info

Callsign JAL2331
Flight time 0h 33m
Altitude 20000
Route TIGER ASAGI TOZAN Y38 TSUNO
Aircraft E170/M-SDE3GILORVW/S

Departure

Time 2026-05-05 05:59
Airport Osaka Itami International Airport (RJOO)

Arrival

Time 2026-05-05 06:32
Airport Oki Global Geopark Airport (RJNO)
Time Latitude Longitude Altitude Speed Heading
2026-05-05 05:39 34.79212 135.43649 46 ft 0 kts 177°
2026-05-05 05:55 34.79202 135.43648 46 ft 3 kts 193°
2026-05-05 05:55 34.79173 135.43626 46 ft 7 kts 217°
2026-05-05 05:55 34.79127 135.43587 44 ft 9 kts 194°
2026-05-05 05:55 34.79060 135.43614 46 ft 12 kts 141°
2026-05-05 05:56 34.78997 135.43692 44 ft 14 kts 135°
2026-05-05 05:56 34.78921 135.43784 46 ft 17 kts 135°
2026-05-05 05:56 34.78832 135.43892 46 ft 19 kts 135°
2026-05-05 05:56 34.78732 135.44012 45 ft 21 kts 135°
2026-05-05 05:57 34.78623 135.44145 44 ft 23 kts 134°
2026-05-05 05:57 34.78518 135.44272 45 ft 16 kts 135°
2026-05-05 05:57 34.78435 135.44336 46 ft 15 kts 174°
2026-05-05 05:57 34.78357 135.44317 48 ft 7 kts 234°
2026-05-05 05:58 34.78370 135.44269 48 ft 8 kts 313°
2026-05-05 05:58 34.78389 135.44247 47 ft 2 kts 313°
2026-05-05 05:58 34.78491 135.44124 48 ft 55 kts 316°
2026-05-05 05:58 34.78951 135.43567 48 ft 129 kts 315°
2026-05-05 05:59 34.79713 135.42640 301 ft 169 kts 316°
2026-05-05 05:59 34.80561 135.41547 1056 ft 185 kts 307°
2026-05-05 05:59 34.81002 135.40068 1878 ft 188 kts 271°
2026-05-05 05:59 34.80605 135.38586 2795 ft 191 kts 228°
2026-05-05 06:00 34.79441 135.37800 3381 ft 199 kts 186°
2026-05-05 06:00 34.78076 135.38074 4005 ft 203 kts 161°
2026-05-05 06:00 34.76695 135.38591 4598 ft 214 kts 163°
2026-05-05 06:00 34.75211 135.38769 5147 ft 224 kts 189°
2026-05-05 06:01 34.73689 135.38265 5759 ft 229 kts 193°
2026-05-05 06:01 34.72120 135.37820 6387 ft 234 kts 192°
2026-05-05 06:01 34.70509 135.37381 7007 ft 240 kts 192°
2026-05-05 06:01 34.68817 135.36931 7491 ft 261 kts 192°
2026-05-05 06:02 34.66968 135.36445 7977 ft 278 kts 193°
2026-05-05 06:02 34.65194 135.35476 8689 ft 285 kts 218°
2026-05-05 06:02 34.64002 135.33572 9493 ft 288 kts 248°
2026-05-05 06:02 34.63705 135.31177 10236 ft 293 kts 274°
2026-05-05 06:03 34.64294 135.28728 10476 ft 312 kts 294°
2026-05-05 06:03 34.65232 135.26274 10763 ft 329 kts 294°
2026-05-05 06:03 34.66256 135.23705 11084 ft 343 kts 295°
2026-05-05 06:03 34.67326 135.21093 11645 ft 348 kts 295°
2026-05-05 06:04 34.68400 135.18484 12307 ft 351 kts 294°
2026-05-05 06:04 34.69218 135.15678 12972 ft 353 kts 289°
2026-05-05 06:04 34.70470 135.13085 13634 ft 360 kts 307°
2026-05-05 06:04 34.72219 135.10874 14315 ft 365 kts 315°
2026-05-05 06:05 34.74113 135.08798 15022 ft 367 kts 316°
2026-05-05 06:05 34.76028 135.06730 15751 ft 369 kts 316°
2026-05-05 06:05 34.77951 135.04652 16456 ft 370 kts 316°
2026-05-05 06:05 34.79229 135.03274 16905 ft 372 kts 316°
2026-05-05 06:06 34.81173 135.01184 17603 ft 374 kts 316°
2026-05-05 06:06 34.83123 134.99089 18299 ft 376 kts 316°
2026-05-05 06:06 34.85092 134.96980 18905 ft 377 kts 315°
2026-05-05 06:06 34.87070 134.94869 19497 ft 379 kts 315°
2026-05-05 06:07 34.89712 134.92056 20200 ft 382 kts 315°
2026-05-05 06:07 34.91051 134.90630 20089 ft 375 kts 314°
2026-05-05 06:07 34.92910 134.88492 20166 ft 365 kts 312°
2026-05-05 06:07 34.94731 134.86344 20163 ft 363 kts 312°
2026-05-05 06:08 34.96527 134.84237 20164 ft 362 kts 312°
2026-05-05 06:08 34.98343 134.82111 20167 ft 362 kts 312°
2026-05-05 06:08 35.00163 134.79981 20176 ft 362 kts 312°
2026-05-05 06:08 35.01982 134.77858 20185 ft 362 kts 312°
2026-05-05 06:09 35.03799 134.75735 20200 ft 362 kts 312°
2026-05-05 06:09 35.05620 134.73607 20189 ft 364 kts 313°
2026-05-05 06:09 35.07447 134.71475 20163 ft 362 kts 312°
2026-05-05 06:09 35.09264 134.69350 20157 ft 362 kts 313°
2026-05-05 06:10 35.11082 134.67223 20157 ft 364 kts 313°
2026-05-05 06:10 35.12914 134.65081 20155 ft 364 kts 312°
2026-05-05 06:10 35.14741 134.62943 20159 ft 363 kts 313°
2026-05-05 06:10 35.16568 134.60804 20147 ft 364 kts 313°
2026-05-05 06:11 35.18397 134.58661 20153 ft 365 kts 312°
2026-05-05 06:11 35.20228 134.56513 20151 ft 364 kts 312°
2026-05-05 06:11 35.22056 134.54369 20145 ft 364 kts 312°
2026-05-05 06:11 35.23880 134.52224 20145 ft 364 kts 312°
2026-05-05 06:12 35.25671 134.50046 20141 ft 362 kts 307°
2026-05-05 06:12 35.27044 134.47500 20151 ft 357 kts 291°
2026-05-05 06:12 35.27788 134.44631 20162 ft 352 kts 281°
2026-05-05 06:12 35.28350 134.41705 20146 ft 354 kts 281°
2026-05-05 06:13 35.28906 134.38775 20128 ft 353 kts 281°
2026-05-05 06:13 35.29457 134.35849 20133 ft 354 kts 280°
2026-05-05 06:13 35.30002 134.32945 20129 ft 353 kts 280°
2026-05-05 06:13 35.30549 134.30018 20128 ft 354 kts 280°
2026-05-05 06:14 35.31097 134.27086 20137 ft 354 kts 280°
2026-05-05 06:14 35.31650 134.24139 20134 ft 354 kts 280°
2026-05-05 06:14 35.32196 134.21207 20138 ft 354 kts 280°
2026-05-05 06:14 35.32742 134.18264 20138 ft 354 kts 280°
2026-05-05 06:15 35.33521 134.15406 20154 ft 357 kts 295°
2026-05-05 06:15 35.35009 134.12936 20171 ft 363 kts 307°
2026-05-05 06:15 35.36681 134.10601 20112 ft 365 kts 308°
2026-05-05 06:15 35.38351 134.08275 20123 ft 363 kts 308°
2026-05-05 06:16 35.40012 134.05939 20118 ft 363 kts 307°
2026-05-05 06:16 35.41671 134.03604 20121 ft 363 kts 308°
2026-05-05 06:16 35.43331 134.01261 20124 ft 364 kts 307°
2026-05-05 06:16 35.44988 133.98924 20048 ft 365 kts 307°
2026-05-05 06:17 35.46655 133.96571 19754 ft 365 kts 308°
2026-05-05 06:17 35.48319 133.94227 19463 ft 363 kts 308°
2026-05-05 06:17 35.49975 133.91873 18926 ft 365 kts 307°
2026-05-05 06:17 35.51623 133.89507 18424 ft 363 kts 307°
2026-05-05 06:18 35.53261 133.87170 17913 ft 359 kts 308°
2026-05-05 06:18 35.54879 133.84862 17450 ft 355 kts 308°
2026-05-05 06:18 35.56489 133.82570 16985 ft 353 kts 308°
2026-05-05 06:18 35.58094 133.80284 16524 ft 352 kts 308°
2026-05-05 06:19 35.59688 133.78015 16060 ft 350 kts 308°
2026-05-05 06:19 35.61275 133.75754 15609 ft 348 kts 308°
2026-05-05 06:19 35.62853 133.73507 15139 ft 347 kts 308°
2026-05-05 06:19 35.64420 133.71274 14684 ft 341 kts 308°
2026-05-05 06:20 35.65955 133.69086 14246 ft 334 kts 308°
2026-05-05 06:20 35.67461 133.66939 13664 ft 331 kts 309°
2026-05-05 06:20 35.68956 133.64804 13222 ft 325 kts 309°
2026-05-05 06:20 35.70417 133.62719 12801 ft 318 kts 309°
2026-05-05 06:21 35.71845 133.60678 12400 ft 312 kts 309°
2026-05-05 06:21 35.73250 133.58668 11990 ft 307 kts 309°
2026-05-05 06:21 35.74633 133.56690 11592 ft 303 kts 309°
2026-05-05 06:21 35.75997 133.54737 11195 ft 299 kts 309°
2026-05-05 06:22 35.77357 133.52854 10780 ft 298 kts 316°
2026-05-05 06:22 35.79127 133.51540 10369 ft 297 kts 335°
2026-05-05 06:22 35.81049 133.50603 9903 ft 298 kts 338°
2026-05-05 06:22 35.82978 133.49657 9429 ft 297 kts 337°
2026-05-05 06:23 35.84890 133.48711 8986 ft 295 kts 336°
2026-05-05 06:23 35.86787 133.47764 8538 ft 293 kts 336°
2026-05-05 06:23 35.88673 133.46820 8103 ft 292 kts 336°
2026-05-05 06:23 35.90550 133.45879 7670 ft 290 kts 336°
2026-05-05 06:24 35.92417 133.44939 7247 ft 289 kts 335°
2026-05-05 06:24 35.94278 133.44002 6808 ft 288 kts 335°
2026-05-05 06:24 35.96118 133.43073 6359 ft 282 kts 335°
2026-05-05 06:24 35.97821 133.42214 6034 ft 275 kts 335°
2026-05-05 06:25 35.99676 133.41724 5657 ft 277 kts
2026-05-05 06:25 36.01510 133.42433 5268 ft 278 kts 29°
2026-05-05 06:25 36.03137 133.43707 4866 ft 276 kts 33°
2026-05-05 06:25 36.04728 133.44950 4443 ft 270 kts 32°
2026-05-05 06:26 36.06311 133.46117 4085 ft 261 kts 30°
2026-05-05 06:26 36.07865 133.47228 3719 ft 254 kts 30°
2026-05-05 06:26 36.09361 133.48288 3363 ft 242 kts 30°
2026-05-05 06:26 36.10797 133.49300 3048 ft 233 kts 29°
2026-05-05 06:27 36.12187 133.50276 2741 ft 226 kts 29°
2026-05-05 06:27 36.15118 133.50957 2162 ft 211 kts 356°
2026-05-05 06:27 36.16564 133.50919 1930 ft 203 kts 357°
2026-05-05 06:28 36.17936 133.50906 1823 ft 192 kts 357°
2026-05-05 06:28 36.19222 133.50656 1686 ft 185 kts 334°
2026-05-05 06:28 36.20353 133.49951 1705 ft 182 kts 331°
2026-05-05 06:28 36.21507 133.49293 1710 ft 183 kts 333°
2026-05-05 06:29 36.22507 133.48377 1706 ft 180 kts 299°
2026-05-05 06:29 36.22648 133.46907 1709 ft 176 kts 251°
2026-05-05 06:29 36.22179 133.45504 1755 ft 176 kts 246°
2026-05-05 06:29 36.21722 133.44137 1740 ft 171 kts 247°
2026-05-05 06:30 36.21265 133.42767 1583 ft 168 kts 248°
2026-05-05 06:30 36.20833 133.41455 1648 ft 164 kts 248°
2026-05-05 06:30 36.20411 133.40162 1560 ft 156 kts 247°
2026-05-05 06:30 36.20010 133.38950 1325 ft 149 kts 247°
2026-05-05 06:31 36.19626 133.37783 1085 ft 144 kts 248°
2026-05-05 06:31 36.19253 133.36665 865 ft 141 kts 248°
2026-05-05 06:31 36.18886 133.35541 661 ft 139 kts 247°
2026-05-05 06:31 36.18534 133.34444 512 ft 139 kts 247°
2026-05-05 06:32 36.18162 133.33334 310 ft 139 kts 247°
2026-05-05 06:32 36.17834 133.32337 273 ft 107 kts 248°
2026-05-05 06:32 36.17617 133.31682 269 ft 53 kts 248°
2026-05-05 06:32 36.17525 133.31423 266 ft 19 kts 227°
2026-05-05 06:33 36.17495 133.31354 268 ft 5 kts 295°
2026-05-05 06:33 36.17513 133.31356 265 ft 5 kts 56°
2026-05-05 06:33 36.17542 133.31453 266 ft 19 kts 68°
2026-05-05 06:33 36.17601 133.31626 270 ft 23 kts 67°
2026-05-05 06:34 36.17664 133.31820 267 ft 26 kts 68°
2026-05-05 06:34 36.17734 133.32035 268 ft 28 kts 67°
2026-05-05 06:34 36.17811 133.32264 270 ft 29 kts 66°
2026-05-05 06:34 36.17886 133.32494 274 ft 30 kts 67°
2026-05-05 06:35 36.17962 133.32720 277 ft 18 kts 67°
2026-05-05 06:35 36.17998 133.32858 276 ft 17 kts 98°
2026-05-05 06:35 36.17927 133.32908 276 ft 13 kts 158°
2026-05-05 06:35 36.17873 133.32974 276 ft 5 kts 121°
2026-05-05 06:36 36.17851 133.32991 275 ft 1 kts 147°
2026-05-05 06:36 36.17847 133.32993 275 ft 0 kts 155°